Home > Weather > Olten > Past weeks

Flag for Switzerland Past Weather in Olten, Solothurn, Switzerland — Yesterday and Last 2 Weeks

Now
59 °F

Cool.


Feels Like: 59 °F
Forecast: 60 / 72 °F
Wind: No wind

Location: Wynau

Current Time: Jul 30, 2016 at 7:25:47 AM

Latest Report: Jul 30, 2016 at 6:00 AM


Visibility: N/A

Pressure: 30.00 "Hg

Humidity: 96%

Dew Point: 58 °F

Location of OltenLocation

Past Weather in Olten — Graph

°F

Olten Temperature Yesterday

Maximum temperature yesterday: 81 °F (at 5:00 PM)
Minimum temperature yesterday: 60 °F (at 7:00 AM)
Average temperature yesterday: 71 °F

High & Low Weather Summary for the Past Weeks

 TemperatureHumidityPressure
High90 °F (Jul 20, 5:00 PM)100% (Jul 16, 6:00 AM)30.37 "Hg (Jul 16, 6:00 AM)
Low46 °F (Jul 16, 6:00 AM)31% (Jul 19, 5:00 PM)29.88 "Hg (Jul 20, 6:00 PM)
Average68 °F75%30.08 "Hg
* Reported Jul 15 6:00 AM — Jul 30 6:00 AM, Olten, Weather by CustomWeather, © 2016

Note: Actual official high and low records may vary slightly from our data, if they occured in-between our weather recording intervals... More about our weather records

Advertising

Olten Weather History for the Previous 24 Hours

Scroll right to see more
 ConditionsComfort  
Time TempWeatherWind HumidityBarometerVisibility
6:00 AM
Sat, Jul 30
59 °FCool.No wind96%30.00 "HgN/A
5:00 AM60 °FCool.1 mph98%30.00 "HgN/A
4:00 AM60 °FCool.1 mph96%30.01 "HgN/A
3:00 AM62 °FCool.No wind95%30.00 "HgN/A
2:00 AM62 °FCool.No wind94%30.00 "HgN/A
1:00 AM63 °FMild.No wind94%30.00 "HgN/A
12:00 AM64 °FMild.No wind90%29.99 "HgN/A
11:00 PM
Fri, Jul 29
66 °FMild.1 mph88%29.98 "HgN/A
10:00 PM68 °FMild.1 mph79%29.97 "HgN/A
9:00 PM71 °FMild.2 mph72%29.95 "HgN/A
8:00 PM77 °FWarm.3 mph53%29.92 "HgN/A
7:00 PM80 °FWarm.5 mph53%29.91 "HgN/A
6:00 PM80 °FWarm.3 mph49%29.91 "HgN/A
5:00 PM81 °FWarm.5 mph48%29.91 "HgN/A
4:00 PM80 °FWarm.3 mph48%29.93 "HgN/A
3:00 PM80 °FWarm.5 mph48%29.94 "HgN/A
2:00 PM79 °FWarm.5 mph48%29.96 "HgN/A
1:00 PM78 °FWarm.7 mph47%29.97 "HgN/A
12:00 PM75 °FMild.5 mph54%29.99 "HgN/A
11:00 AM73 °FMild.5 mph61%30.01 "HgN/A
10:00 AM70 °FMild.5 mph68%30.02 "HgN/A
9:00 AM67 °FMild.2 mph76%30.04 "HgN/A
8:00 AM64 °FMild.No wind87%30.05 "HgN/A
7:00 AM60 °FCool.No wind93%30.06 "HgN/A
Weather by CustomWeather, © 2016

See weather overviewHow to use our weather pages